Location: Bégole
(43.1574°N, 0.3291°E)
Time: 03:26:31
(UTC+00:00)

Nadezhda 2 Rocket - Pass Details

Date: 28 January 2023
Orbit: 947 x 1011 km, 83.0° (Epoch: 27 March)

Event Time Altitude Azimuth Distance (km) Brightness Sun altitude
Rises 19:20:40 0° 351° (N) 3,689 7.6 -24.7°
Reaches altitude 10° 19:23:12 10° 351° (N) 2,728 6.9 -25.2°
Maximum altitude 19:29:27 84° 264° (W) 973 4.4 -26.3°
Drops below altitude 10° 19:35:34 10° 177° (S) 2,672 6.7 -27.4°
Sets 19:38:02 0° 177° (S) 3,609 7.4 -27.9°
